Current weather by "City, St" or "zip code"  
 

Current Conditions: Cleveland / Cuyahoga, OH

Overcast


24.0 F

Last Updated on Jan 19 2022, 11:30 pm EST
Humidity: 70%
Wind Speed: NW 10.4 G 19.6 mph
Barometer 30.16 in
Dewpoint: 15.8 F
Visibility: 10.00 mi
Precip: --
Heat Index: NA
Wind Chill: 14 F
Current conditions at:

Cleveland / Cuyahoga, OH (KCGF)

Lat: 41.56667 Lon: 81.48333

Local Radar Image active severe weather and emergency alerts image image weather storm and storm spotter reports image weather observation monitoring service image
Local
Radar
Active
Alerts
Storm Reports Obs
Monitoring

Sign-up For Email & Text Message Weather Alert Notification Services



Advertise Here

Observation History for Cleveland / Cuyahoga, OH


Time Wind
(mph)
Vis
(mi)
Weather Precip (in) Temperature (F) Relative
Humidity
Wind
Chill
(F)
Heat
Index
(F)
Pressure
Air Dwpt altimeter
(in)
sea level
(mb)
Rmks
11:30 pm EST NW 10.4 G 19.6 10.00 Overcast -- 24.0 15.8 70% 14 NA 30.16 M
10:45 pm EST NW 11.5 G 21.9 20.00 Overcast -- 27.0 17.6 69% 17 NA 30.13 M
9:45 pm EST NW 10.4 G 19.6 20.00 Overcast -- 27.0 19.4 74% 17 NA 30.11 M
8:45 pm EST NW 11.5 G 19.6 20.00 Overcast -- 28.0 21.2 74% 18 NA 30.08 M
7:45 pm EST NW 13.8 G 21.9 20.00 Overcast -- 30.0 24.8 80% 19 NA 30.05 M
6:45 pm EST W 13.8 20.00 Overcast -- 34.0 26.6 75% 25 NA 30.02 M
5:45 pm EST W 13.8 G 21.9 20.00 Overcast -- 34.0 28.4 81% 25 NA 29.98 M
4:45 pm EST W 15.0 G 23.0 10.00 Overcast -- 36.0 28.4 75% 27 NA 29.94 M
3:45 pm EST W 15.0 G 23.0 10.00 Overcast -- 37.0 30.2 75% 28 NA 29.90 M
2:45 pm EST W 15.0 10.00 Overcast -- 37.0 32.0 81% 28 NA 29.88 M
1:45 pm EST W 17.3 G 24.2 10.00 Overcast -- 41.0 33.8 76% 32 NA 29.85 M
12:45 pm EST SW 23.0 G 29.9 10.00 Overcast and Breezy -- 41.0 33.8 76% 31 NA 29.84 M
11:45 am EST SW 17.3 G 26.5 10.00 Overcast -- 39.0 33.8 81% 30 NA 29.85 M
10:45 am EST SW 19.6 G 31.1 10.00 Overcast -- 41.0 33.8 76% 32 NA 29.84 M
9:45 am EST SW 11.5 10.00 Overcast -- 39.0 32.0 75% 32 NA 29.83 M
8:45 am EST SW 10.4 10.00 Mostly Cloudy -- 37.0 30.2 75% 30 NA 29.81 M
7:45 am EST SW 11.5 G 20.7 10.00 Partly Cloudy -- 37.0 30.2 75% 29 NA 29.79 M
6:45 am EST SW 12.7 10.00 Mostly Cloudy -- 36.0 28.4 75% 28 NA 29.77 M
5:35 am EST S 17.3 G 25.3 10.00 Mostly Cloudy -- 35.0 28.2 75% 25 NA 29.78 M
4:55 am EST S 20.7 G 26.5 10.00 Partly Cloudy and Breezy -- 35.0 27.7 73% 24 NA 29.79 M
4:35 am EST S 21.9 G 27.6 10.00 Fair and Breezy -- 35.0 27.1 73% 23 NA 29.79 M
3:55 am EST S 18.4 G 28.8 10.00 Fair -- 34.0 26.4 74% 23 NA 29.81 M
2:55 am EST S 21.9 G 29.9 10.00 Overcast and Breezy -- 35.0 26.1 69% 23 NA 29.83 M
1:55 am EST S 17.3 G 26.5 10.00 Overcast -- 34.0 24.8 70% 23 NA 29.84 M

Regional Weather Observation


Cleveland, Burke Lakefront Airport, OH (KBKL)

Overcast
27.0 F

Cleveland / Cuyahoga, OH (KCGF)

Overcast
24.0 F

Cleveland Hopkins International Airport, OH (KCLE)

Light Snow
25.0 F

Portage County Airport, OH (KPOV)

Overcast
26.0 F

Akron, Akron Fulton International Airport, OH (KAKR)

Overcast
28.0 F

Lorain / Elyria, Lorain County Regional Airport, OH (KLPR)

Overcast
23.0 F

Advertise Here


Advertise Here